2018-015G (43198 NORAD) Tracking and Keplerian Element Data

This shows tracking and keplerian element data for the satellite.

Feedback or suggestion? Click here.




ElementValue
Catalog43198
Name2018-015G
Epoch Orbit451
Epoch Day62.92097094
Epoch Year2018
RAAN194.0577
Inclination97.222
Eccentricity0.0049615
Argument of Perigee193.8416
Mean Anonmoly166.145
Mean Motion15.30719765
Decay Rate5.055E-05
L11 43198U 18015G 18062.92097094 .00005055 00000-0 16651-3 0 9994
L22 43198 97.2220 194.0577 0049615 193.8416 166.1450 15.30719765 4516



Live tracking and technical data element details for 2018-015G (NORAD 43198). 2018-015G can be tracked NOW for your location showing map with azimuth and elevation plus other details from your city location.







IsCatalogInMostPopularTable: catalog: 43198, numindb: 590
Update: records affected: 1



GetName: 43198 2018-015G

Hit Count: updated at: Tue, 20 Jan 2026 19:06:10 GMT